Terminal Aerodrome Forecast
Issued by NWS

Home | Current Version | Previous Version | Text Only | Print | Product List | Glossary On
Versions: 1 2 3 4 5 6 7 8 9 10 11 12
000
FTAK31 PAJN 271700
TAFAWG
TAF
PAWG 271727Z 2718/2818 11008KT P6SM VCSH FEW005 BKN035 BKN060
     FM272000 14010KT P6SM VCSH SCT050 BKN100
     FM280200 14010KT P6SM SCT050 SCT100
     FM280800 14007KT 5SM BR SCT010 SCT100
      AMD LTD TO CLD VIS AND WIND 2806/2815=

USA.gov is the U.S. government's official web portal to all federal, state and local government web resources and services.